SQ5SUI-3 Weather Reports


time (UTC)temp
F
wind
direction
speed
knots
gust
knots
rain 1hr
in
rain 24hr
in
rain mn
in
humidity
%
barometer
mb
20260506140330 80 208 5.2 9.6 0.00 0.00 0.00 31 1022.6
20260506133330 82 192 2.6 8.7 0.00 0.00 0.00 29 1022.4
20260506130329 78 184 3.5 12.2 0.00 0.00 0.00 32 1022.1
20260506123328 78 206 2.6 9.6 0.00 0.00 0.00 35 1021.9
20260506120328 77 190 4.3 13.0 0.00 0.00 0.00 38 1021.7
20260506113330 78 181 4.3 12.2 0.00 0.00 0.00 36 1021.6
20260506110328 77 191 7.8 11.3 0.00 0.00 0.00 38 1021.6
20260506103329 77 165 2.6 16.5 0.00 0.00 0.00 35 1021.6
20260506100329 77 178 5.2 9.6 0.00 0.00 0.00 36 1021.4
20260506093329 77 195 4.3 7.8 0.00 0.00 0.00 34 1021.3
20260506090329 75 207 5.2 9.6 0.00 0.00 0.00 34 1021.5
20260506083330 74 218 2.6 6.1 0.00 0.00 0.00 37 1021.4
20260506080330 74 166 2.6 7.0 0.00 0.00 0.00 35 1021.6
20260506073328 72 189 1.7 5.2 0.00 0.00 0.00 36 1021.4
20260506070329 69 190 2.6 5.2 0.00 0.00 0.00 40 1021.0
20260506060328 62 231 0.9 2.6 0.00 0.00 0.00 51 1021.0
20260506050328 61 126 1.7 6.1 0.00 0.00 0.00 51 1021.3
20260506043329 59 136 2.6 4.3 0.00 0.00 0.00 54 1021.0
20260506040329 55 45 0.0 1.7 0.00 0.00 0.00 59 1020.9
20260506033328 54 181 0.0 0.9 0.00 0.00 0.00 58 1021.1
20260506030328 54 139 0.9 2.6 0.00 0.00 0.00 57 1021.0
20260506023330 56 45 0.0 0.0 0.00 0.00 0.00 52 1021.1
20260506020328 57 314 0.0 0.0 0.00 0.00 0.00 50 1020.7
20260506013330 57 168 0.0 2.6 0.00 0.00 0.00 52 1020.6
20260506010330 56 163 0.9 2.6 0.00 0.00 0.00 52 1020.8
20260506003329 55 168 0.9 4.3 0.00 0.00 0.00 53 1020.7
20260506000330 56 161 0.9 2.6 0.00 0.00 0.00 52 1020.9
20260505233329 56 166 1.7 3.5 0.00 0.00 0.00 51 1020.9
20260505230329 57 186 0.9 3.5 0.00 0.00 0.00 51 1021.3
20260505223330 58 166 0.9 3.5 0.00 0.00 0.00 48 1021.3
20260505220330 59 163 0.9 4.3 0.00 0.00 0.00 46 1021.3
20260505213329 59 168 0.9 2.6 0.00 0.00 0.00 46 1021.5
20260505210329 61 176 1.7 2.6 0.00 0.00 0.00 44 1021.4
20260505203328 63 170 0.9 5.2 0.00 0.00 0.00 39 1021.5
20260505200328 64 201 1.7 2.6 0.00 0.00 0.00 39 1021.7
20260505193329 64 165 0.9 2.6 0.00 0.00 0.00 39 1022.6
20260505190328 68 146 2.6 4.3 0.00 0.00 0.00 34 1022.7
20260505183329 69 156 1.7 4.3 0.00 0.00 0.00 31 1023.1
20260505180328 72 137 2.6 5.2 0.00 0.00 0.00 22 1023.5
20260505173328 75 139 1.7 4.3 0.00 0.00 0.00 21 1023.1
20260505170327 78 152 2.6 5.2 0.00 0.00 0.00 19 1023.1
20260505163328 79 141 1.7 3.5 0.00 0.00 0.00 10 1022.7
20260505153059 78 149 2.6 7.8 0.00 0.00 0.00 10 1022.9